EW7067 Weather Reports


Display with metric or nautical units.
time (UTC)temp
F
wind
direction
speed
MPH
gust
MPH
rain 1hr
in
rain 24hr
in
rain mn
in
humidity
%
barometer
mb
20210621183654 90 191 3.0 9.0 0.00 0.00 0.00 64 1003.5
20210621183154 90 273 3.0 11.0 0.00 0.00 0.00 64 1003.6
20210621182653 89 288 3.0 11.0 0.00 0.00 0.00 65 1003.7
20210621182152 89 165 3.0 9.0 0.00 0.00 0.00 67 1003.9
20210621181653 88 157 3.0 11.0 0.00 0.00 0.00 68 1004.1
20210621181154 88 192 3.0 11.0 0.00 0.00 0.00 66 1004.2
20210621180649 88 187 3.0 11.0 0.00 0.00 0.00 65 1004.2
20210621180149 88 192 4.0 12.0 0.00 0.00 0.00 65 1004.4
20210621175648 87 5 4.0 12.0 0.00 0.00 0.00 71 1004.5
20210621175148 87 264 4.0 10.0 0.00 0.00 0.00 67 1004.5
20210621174650 87 209 4.0 12.0 0.00 0.00 0.00 66 1004.7
20210621174148 87 271 4.0 12.0 0.00 0.00 0.00 68 1005.0
20210621173648 87 204 4.0 11.0 0.00 0.00 0.00 68 1005.0
20210621173149 87 298 4.0 11.0 0.00 0.01 0.00 66 1005.1
20210621172649 87 277 4.0 10.0 0.00 0.01 0.00 64 1005.2
20210621172145 87 146 4.0 11.0 0.00 0.02 0.00 66 1005.3
20210621171644 87 123 3.0 11.0 0.00 0.02 0.00 66 1005.5
20210621171146 87 130 4.0 10.0 0.00 0.02 0.00 64 1005.6
20210621170644 88 230 4.0 12.0 0.00 0.02 0.00 65 1005.6
20210621170145 88 187 3.0 12.0 0.00 0.02 0.00 64 1005.6
20210621165644 87 257 3.0 8.0 0.00 0.02 0.00 66 1005.7
20210621165146 87 219 4.0 8.0 0.00 0.02 0.00 64 1005.6
20210621164646 87 204 4.0 9.0 0.00 0.02 0.00 65 1005.7
20210621164146 87 307 4.0 10.0 0.00 0.02 0.00 68 1005.7
20210621163646 87 216 4.0 12.0 0.00 0.02 0.00 67 1005.8
20210621163144 87 175 3.0 12.0 0.00 0.02 0.00 68 1005.9
20210621162644 87 262 3.0 8.0 0.00 0.02 0.00 68 1005.9
20210621162144 87 254 2.0 6.0 0.00 0.02 0.00 73 1005.9
20210621161644 86 154 1.0 5.0 0.00 0.02 0.00 74 1005.9
20210621161143 86 203 1.0 5.0 0.00 0.02 0.00 70 1005.9
20210621160643 86 155 2.0 7.0 0.00 0.02 0.00 69 1006.1
20210621160143 86 59 2.0 7.0 0.00 0.02 0.00 69 1006.1
20210621155643 87 111 2.0 6.0 0.00 0.02 0.00 68 1006.1
20210621155142 87 251 2.0 8.0 0.00 0.02 0.00 67 1006.1
20210621154643 87 163 2.0 8.0 0.00 0.02 0.00 68 1006.1
20210621154140 87 164 4.0 9.0 0.00 0.02 0.00 67 1006.0
20210621153640 87 176 3.0 9.0 0.00 0.02 0.00 69 1005.9
20210621153136 87 160 2.0 7.0 0.00 0.02 0.00 67 1006.0
20210621152628 86 296 2.0 8.0 0.00 0.02 0.00 72 1006.0
20210621152122 86 142 3.0 8.0 0.00 0.02 0.00 71 1006.0
20210621151617 85 303 3.0 10.0 0.00 0.02 0.00 71 1006.0
20210621151110 85 336 3.0 10.0 0.00 0.02 0.00 71 1006.1
20210621150604 85 295 2.0 5.0 0.00 0.02 0.00 72 1006.1
20210621150058 85 215 3.0 8.0 0.00 0.02 0.00 71 1006.1
20210621145554 85 215 3.0 8.0 0.00 0.02 0.00 70 1006.2
20210621145047 85 267 2.0 8.0 0.00 0.02 0.00 73 1006.2
20210621144540 84 277 3.0 8.0 0.00 0.02 0.00 73 1006.1
20210621144036 84 293 3.0 7.0 0.00 0.02 0.00 75 1006.2
20210621143528 84 242 2.0 7.0 0.00 0.02 0.00 73 1006.1
20210621143023 84 165 2.0 5.0 0.00 0.02 0.00 78 1006.2
20210621142517 83 198 2.0 5.0 0.00 0.02 0.00 75 1006.2
20210621142011 83 242 2.0 6.0 0.00 0.02 0.00 79 1006.2
20210621141505 83 231 2.0 6.0 0.00 0.02 0.00 80 1006.2
20210621140958 82 219 3.0 8.0 0.00 0.02 0.00 80 1006.3
20210621140454 82 214 3.0 8.0 0.00 0.02 0.00 79 1006.4
20210621135946 82 310 2.0 5.0 0.00 0.02 0.00 81 1006.4
20210621135441 82 294 2.0 4.0 0.00 0.02 0.00 81 1006.5
20210621134933 82 281 2.0 4.0 0.00 0.03 0.00 80 1006.5
20210621134428 81 273 1.0 4.0 0.00 0.03 0.00 81 1006.6
20210621133922 81 235 1.0 4.0 0.00 0.03 0.00 84 1006.6
20210621133416 81 314 1.0 4.0 0.00 0.04 0.00 82 1006.5
20210621132910 80 182 1.0 4.0 0.00 0.04 0.00 83 1006.6
20210621132405 80 284 1.0 4.0 0.00 0.05 0.00 85 1006.5
20210621131858 79 287 1.0 4.0 0.00 0.05 0.00 87 1006.6
20210621131352 78 191 2.0 6.0 0.00 0.05 0.00 87 1006.6
20210621130847 78 263 1.0 6.0 0.00 0.05 0.00 87 1006.6
20210621130341 77 281 1.0 4.0 0.00 0.05 0.00 90 1006.6
20210621125833 77 317 2.0 5.0 0.00 0.05 0.00 91 1006.6
20210621125328 76 333 1.0 5.0 0.00 0.05 0.00 93 1006.6
20210621124823 76 223 1.0 4.0 0.00 0.05 0.00 94 1006.6
20210621124317 75 280 1.0 3.0 0.00 0.05 0.00 96 1006.5
20210621123811 74 281 1.0 3.0 0.00 0.06 0.00 96 1006.6
20210621123305 74 281 1.0 3.0 0.00 0.06 0.00 96 1006.5
20210621122758 74 281 1.0 3.0 0.00 0.06 0.00 96 1006.4
20210621122252 73 281 1.0 3.0 0.00 0.06 0.00 96 1006.4
20210621121749 73 159 0.0 2.0 0.00 0.06 0.00 95 1006.2
20210621121241 72 115 1.0 2.0 0.00 0.06 0.00 95 1006.2
20210621120735 71 115 0.0 2.0 0.00 0.06 0.00 94 1006.1
20210621120228 71 115 0.0 2.0 0.00 0.06 0.00 94 1006.2
20210621115722 71 115 0.0 1.0 0.00 0.06 0.00 93 1006.1
20210621115218 70 115 0.0 0.0 0.00 0.06 0.00 93 1006.2
20210621114711 69 115 0.0 0.0 0.00 0.06 0.00 93 1006.2
20210621114205 69 115 0.0 0.0 0.00 0.06 0.00 93 1006.1
20210621113659 68 115 0.0 1.0 0.00 0.06 0.00 93 1006.1
20210621113153 68 115 0.0 1.0 0.00 0.06 0.00 93 1006.1
20210621112646 67 115 0.0 1.0 0.00 0.06 0.00 93 1006.1
20210621112141 67 115 0.0 2.0 0.00 0.06 0.00 94 1006.0
20210621111636 67 115 0.0 2.0 0.00 0.06 0.00 93 1005.8
20210621111129 67 115 0.0 1.0 0.00 0.06 0.00 93 1005.8
20210621110621 67 115 0.0 0.0 0.00 0.06 0.00 93 1005.7
20210621110118 67 115 0.0 0.0 0.00 0.06 0.00 93 1005.6
20210621105609 66 115 0.0 1.0 0.00 0.06 0.00 93 1005.6
20210621105105 65 115 0.0 2.0 0.00 0.06 0.00 94 1005.7
20210621104557 65 115 0.0 2.0 0.00 0.06 0.00 94 1005.7
20210621104052 65 115 0.0 0.0 0.00 0.06 0.00 94 1005.6
20210621103547 66 115 0.0 0.0 0.00 0.06 0.00 93 1005.5
20210621103040 66 115 0.0 0.0 0.00 0.06 0.00 93 1005.4
20210621102536 65 115 0.0 0.0 0.00 0.06 0.00 94 1005.5
20210621102029 65 115 0.0 0.0 0.00 0.06 0.00 94 1005.4
20210621101522 65 115 0.0 0.0 0.00 0.06 0.00 94 1005.4
20210621101017 65 115 0.0 0.0 0.00 0.06 0.00 94 1005.4
20210621100509 65 115 0.0 0.0 0.00 0.06 0.00 94 1005.2
20210621100005 65 115 0.0 0.0 0.00 0.06 0.00 94 1005.3
20210621095458 65 115 0.0 0.0 0.00 0.06 0.00 94 1005.2
20210621094953 65 115 0.0 0.0 0.00 0.06 0.00 94 1005.1
20210621094447 65 115 0.0 0.0 0.00 0.06 0.00 94 1005.1
20210621093942 65 115 0.0 0.0 0.00 0.06 0.00 94 1005.0
20210621093435 66 115 0.0 0.0 0.00 0.06 0.00 94 1005.0
20210621092929 66 115 0.0 0.0 0.00 0.06 0.00 94 1005.1
20210621092423 66 115 0.0 0.0 0.00 0.06 0.00 94 1005.0
20210621091917 66 115 0.0 0.0 0.00 0.06 0.00 94 1005.1
20210621091411 66 115 0.0 0.0 0.00 0.06 0.00 94 1004.9
20210621090905 66 115 0.0 0.0 0.00 0.06 0.00 94 1004.8
20210621090359 66 115 0.0 0.0 0.00 0.06 0.00 94 1004.8
20210621085855 66 115 0.0 0.0 0.00 0.06 0.00 94 1004.7
20210621085346 66 115 0.0 0.0 0.00 0.06 0.00 94 1004.8
20210621084841 66 115 0.0 0.0 0.00 0.06 0.00 94 1004.7
20210621084348 66 115 0.0 0.0 0.00 0.06 0.00 94 1004.7
20210621083830 67 115 0.0 0.0 0.00 0.06 0.00 94 1004.5
20210621083323 67 115 0.0 0.0 0.00 0.06 0.00 94 1004.5
20210621082817 67 115 0.0 0.0 0.00 0.06 0.00 94 1004.4
20210621082311 67 115 0.0 0.0 0.00 0.06 0.00 94 1004.3
20210621081806 67 115 0.0 0.0 0.00 0.06 0.00 94 1004.2
20210621081307 67 115 0.0 0.0 0.00 0.06 0.00 94 1004.2
20210621080805 67 115 0.0 0.0 0.00 0.06 0.00 94 1004.2
20210621080308 67 115 0.0 0.0 0.00 0.06 0.00 94 1004.3
20210621075806 67 115 0.0 0.0 0.00 0.06 0.00 94 1004.2
20210621075307 67 115 0.0 0.0 0.00 0.06 0.00 94 1004.1
20210621074808 67 115 0.0 0.0 0.00 0.06 0.00 94 1004.1
20210621074306 67 115 0.0 0.0 0.00 0.06 0.00 94 1004.2
20210621073801 67 115 0.0 0.0 0.00 0.06 0.00 94 1004.2
20210621073302 67 115 0.0 0.0 0.00 0.06 0.00 94 1004.1
20210621072759 67 115 0.0 0.0 0.00 0.06 0.00 94 1004.1
20210621072300 67 115 0.0 0.0 0.00 0.06 0.00 94 1004.1
20210621071757 67 115 0.0 0.0 0.00 0.06 0.00 94 1004.1
20210621071259 67 115 0.0 0.0 0.00 0.06 0.00 94 1004.0
20210621070759 67 115 0.0 0.0 0.00 0.06 0.00 94 1004.0
20210621070254 67 115 0.0 0.0 0.00 0.06 0.00 94 1004.0
20210621065753 67 115 0.0 0.0 0.00 0.06 0.00 94 1004.2
20210621065254 67 115 0.0 0.0 0.00 0.06 0.00 94 1004.3
20210621064755 68 115 0.0 0.0 0.00 0.06 0.00 94 1004.3
20210621064254 68 115 0.0 0.0 0.00 0.06 0.00 94 1004.2
20210621063755 68 115 0.0 0.0 0.00 0.06 0.00 94 1004.2
20210621063254 68 115 0.0 0.0 0.00 0.06 0.00 94 1004.2
20210621062754 68 115 0.0 0.0 0.00 0.06 0.00 94 1004.2
20210621062256 68 115 0.0 0.0 0.00 0.06 0.00 94 1004.2
20210621061749 68 115 0.0 0.0 0.00 0.06 0.00 94 1004.3
20210621061251 68 115 0.0 0.0 0.00 0.06 0.00 94 1004.4
20210621060749 68 115 0.0 0.0 0.00 0.06 0.00 95 1004.4
20210621060250 68 115 0.0 0.0 0.00 0.06 0.00 94 1004.4
20210621055750 69 115 0.0 1.0 0.00 0.06 0.00 94 1004.3
20210621055249 69 115 0.0 1.0 0.00 0.06 0.00 94 1004.4
20210621054750 69 115 0.0 1.0 0.00 0.06 0.00 94 1004.4
20210621054250 69 115 0.0 0.0 0.00 0.06 0.00 94 1004.3
20210621053750 69 115 0.0 0.0 0.00 0.06 0.00 94 1004.4
20210621053246 69 115 0.0 1.0 0.00 0.06 0.00 94 1004.4
20210621052745 69 115 0.0 1.0 0.00 0.06 0.00 94 1004.4
20210621052246 69 115 0.0 1.0 0.00 0.06 0.00 95 1004.5
20210621051745 69 115 0.0 0.0 0.00 0.06 0.00 95 1004.5
20210621051248 69 115 0.0 0.0 0.00 0.06 0.00 95 1004.4
20210621050746 69 115 0.0 0.0 0.00 0.06 0.00 95 1004.4
20210621050246 69 115 0.0 0.0 0.00 0.06 0.00 95 1004.3
20210621045747 69 115 0.0 0.0 0.00 0.06 0.00 95 1004.4
20210621045247 69 115 0.0 0.0 0.00 0.06 0.00 95 1004.5
20210621044744 69 115 0.0 0.0 0.00 0.06 0.00 95 1004.5
20210621044241 69 115 0.0 1.0 0.00 0.06 0.00 95 1004.4
20210621043739 69 115 0.0 1.0 0.00 0.06 0.00 95 1004.4
20210621043239 69 115 0.0 1.0 0.00 0.06 0.00 95 1004.5
20210621042735 70 115 0.0 1.0 0.00 0.06 0.00 95 1004.7
20210621042233 70 115 0.0 1.0 0.00 0.06 0.00 95 1004.7
20210621041734 70 115 0.0 1.0 0.00 0.06 0.00 95 1004.7
20210621041229 70 115 0.0 1.0 0.00 0.06 0.00 95 1004.7
20210621040730 70 115 0.0 1.0 0.00 0.06 0.00 95 1004.8
20210621040229 70 115 0.0 0.0 0.00 0.06 0.00 95 1004.9
20210621035727 70 115 0.0 1.0 0.00 0.06 0.06 95 1004.8
20210621035228 70 115 0.0 1.0 0.00 0.06 0.06 95 1004.9
20210621034728 70 115 0.0 1.0 0.00 0.06 0.06 95 1004.9
20210621034227 70 115 0.0 0.0 0.00 0.06 0.06 95 1004.9
20210621033729 70 115 0.0 0.0 0.00 0.06 0.06 95 1005.0
20210621033228 70 115 0.0 0.0 0.00 0.06 0.06 95 1004.9
20210621032728 70 115 0.0 0.0 0.00 0.06 0.06 95 1005.0
20210621032228 70 115 0.0 1.0 0.00 0.06 0.06 95 1005.1
20210621031727 70 115 0.0 1.0 0.00 0.06 0.06 95 1005.2
20210621031227 71 115 1.0 2.0 0.00 0.06 0.06 95 1005.0
20210621030727 71 115 1.0 2.0 0.00 0.06 0.06 96 1005.2
20210621030228 71 115 1.0 2.0 0.00 0.06 0.06 96 1005.2
20210621025730 71 115 1.0 2.0 0.00 0.06 0.06 96 1005.2
20210621025228 71 115 0.0 2.0 0.00 0.06 0.06 96 1005.2
20210621024729 71 115 0.0 1.0 0.00 0.06 0.06 96 1005.4
20210621024227 71 115 0.0 1.0 0.00 0.06 0.06 96 1005.3
20210621023727 72 115 0.0 0.0 0.00 0.06 0.06 96 1005.5
20210621023228 72 115 0.0 0.0 0.00 0.06 0.06 96 1005.5
20210621022727 72 115 0.0 0.0 0.00 0.06 0.06 96 1005.4
20210621022227 72 115 0.0 0.0 0.00 0.06 0.06 96 1005.4
20210621021729 72 115 0.0 0.0 0.00 0.06 0.06 96 1005.4
20210621021227 72 115 0.0 0.0 0.00 0.06 0.06 96 1005.3
20210621020729 73 115 0.0 0.0 0.00 0.06 0.06 95 1005.3
20210621020227 73 115 0.0 0.0 0.00 0.06 0.06 95 1005.3
20210621015728 73 115 0.0 1.0 0.00 0.06 0.06 95 1005.2
20210621015228 73 115 0.0 1.0 0.00 0.06 0.06 95 1005.3
20210621014727 73 115 0.0 1.0 0.00 0.06 0.06 95 1005.2
20210621014227 74 115 0.0 1.0 0.00 0.06 0.06 95 1005.2
20210621013728 74 115 0.0 1.0 0.00 0.06 0.06 95 1005.2
20210621013228 74 115 0.0 1.0 0.00 0.06 0.06 94 1005.2
20210621012729 74 115 0.0 1.0 0.00 0.06 0.06 94 1005.2
20210621012223 74 115 0.0 0.0 0.00 0.06 0.06 94 1005.1
20210621011717 75 115 0.0 0.0 0.00 0.06 0.06 93 1005.1
20210621011212 75 115 0.0 0.0 0.00 0.06 0.06 93 1005.0
20210621010705 75 115 0.0 0.0 0.00 0.06 0.06 93 1005.0
20210621010159 75 115 0.0 0.0 0.00 0.06 0.06 92 1004.9
20210621005654 76 115 0.0 1.0 0.00 0.06 0.06 91 1005.0
20210621005149 76 115 0.0 1.0 0.00 0.06 0.06 91 1004.8
20210621004641 76 115 0.0 1.0 0.00 0.06 0.06 91 1004.8
20210621004135 77 115 0.0 1.0 0.00 0.06 0.06 89 1004.8
20210621003628 77 115 0.0 0.0 0.00 0.06 0.06 89 1004.8
20210621003123 78 115 0.0 1.0 0.00 0.06 0.06 88 1004.8
20210621002618 78 115 0.0 2.0 0.00 0.06 0.06 88 1004.7
20210621002111 78 115 0.0 2.0 0.00 0.06 0.06 88 1004.8
20210621001605 78 115 0.0 1.0 0.00 0.06 0.06 87 1004.7
20210621001058 78 115 0.0 4.0 0.00 0.06 0.06 86 1004.7
20210621000553 79 115 1.0 4.0 0.00 0.06 0.06 85 1004.8
20210621000046 79 115 1.0 3.0 0.00 0.06 0.06 84 1004.7
20210620235542 79 113 1.0 3.0 0.00 0.06 0.06 85 1004.7
20210620235034 80 113 1.0 4.0 0.00 0.06 0.06 83 1004.7
20210620234529 80 188 1.0 4.0 0.00 0.06 0.06 83 1004.7
20210620234024 80 188 1.0 3.0 0.00 0.06 0.06 84 1004.5
20210620233517 80 188 0.0 2.0 0.00 0.06 0.06 84 1004.5
20210620233012 80 189 0.0 3.0 0.00 0.06 0.06 84 1004.5
20210620232505 80 190 1.0 4.0 0.00 0.06 0.06 84 1004.7
20210620231959 81 190 0.0 4.0 0.00 0.06 0.06 83 1004.5
20210620231453 80 153 0.0 2.0 0.00 0.06 0.06 83 1004.5
20210620231000 80 153 0.0 2.0 0.00 0.06 0.06 84 1004.5
20210620230440 79 153 0.0 5.0 0.00 0.06 0.06 84 1004.5
20210620225935 79 153 0.0 5.0 0.00 0.06 0.06 85 1004.5
20210620225429 79 175 1.0 4.0 0.00 0.06 0.06 85 1004.4
20210620224922 80 171 1.0 3.0 0.00 0.06 0.06 85 1004.5
20210620224417 80 140 2.0 7.0 0.00 0.06 0.06 83 1004.4
20210620223911 80 116 2.0 7.0 0.00 0.06 0.06 82 1004.4
20210620223404 81 121 2.0 7.0 0.00 0.06 0.06 82 1004.3
20210620222900 81 154 1.0 7.0 0.00 0.06 0.06 82 1004.2
20210620222353 81 204 0.0 4.0 0.00 0.06 0.06 82 1004.3
20210620221846 80 124 0.0 3.0 0.00 0.06 0.06 86 1004.3
20210620221341 80 119 0.0 2.0 0.00 0.06 0.06 84 1004.4
20210620220834 80 119 0.0 2.0 0.00 0.06 0.06 84 1004.4
20210620220330 80 121 1.0 6.0 0.00 0.06 0.06 84 1004.4
20210620215823 80 119 1.0 6.0 0.00 0.06 0.06 83 1004.5
20210620215317 81 84 1.0 4.0 0.00 0.06 0.06 82 1004.5
20210620214811 81 127 1.0 5.0 0.00 0.06 0.06 81 1004.5
20210620214305 81 124 2.0 7.0 0.00 0.06 0.06 80 1004.5
20210620213800 82 134 2.0 7.0 0.00 0.06 0.06 81 1004.4
20210620213253 82 51 2.0 5.0 0.00 0.06 0.06 80 1004.5
20210620212746 83 182 2.0 7.0 0.00 0.06 0.06 79 1004.5
20210620212241 83 134 2.0 7.0 0.00 0.06 0.06 79 1004.7
20210620211735 83 123 2.0 8.0 0.00 0.06 0.06 78 1004.8
20210620211227 83 125 3.0 9.0 0.00 0.06 0.06 79 1004.7
20210620210721 83 97 3.0 9.0 0.00 0.06 0.06 78 1004.8
20210620210216 83 273 3.0 7.0 0.00 0.06 0.06 79 1004.8
20210620205710 82 125 3.0 8.0 0.00 0.06 0.06 79 1004.8
20210620205206 82 173 2.0 8.0 0.00 0.06 0.06 79 1004.9
20210620204658 82 90 2.0 7.0 0.00 0.06 0.06 82 1005.0
20210620204153 81 215 2.0 7.0 0.00 0.06 0.06 82 1005.0
20210620203647 81 142 2.0 7.0 0.00 0.06 0.06 80 1005.0
20210620203140 81 98 2.0 6.0 0.00 0.06 0.06 84 1005.0
20210620202635 80 155 2.0 7.0 0.00 0.06 0.06 83 1005.0
20210620202130 81 130 3.0 8.0 0.00 0.06 0.06 81 1004.9
20210620201622 81 165 2.0 8.0 0.00 0.06 0.06 81 1005.0
20210620201116 81 60 1.0 5.0 0.00 0.06 0.06 86 1004.9
20210620200611 80 60 1.0 6.0 0.00 0.06 0.06 85 1004.8
20210620200105 80 79 1.0 6.0 0.00 0.06 0.06 85 1004.9
20210620195600 80 90 1.0 4.0 0.00 0.06 0.06 87 1004.9
20210620195053 80 61 2.0 5.0 0.00 0.06 0.06 86 1004.9
20210620194547 80 5 1.0 5.0 0.00 0.06 0.06 86 1005.0
20210620194042 80 60 2.0 5.0 0.00 0.06 0.06 87 1005.1
20210620193535 79 60 3.0 5.0 0.00 0.06 0.06 86 1005.1
20210620193029 79 60 2.0 5.0 0.00 0.06 0.06 86 1005.2
20210620192524 79 98 2.0 6.0 0.00 0.06 0.06 86 1005.4
20210620192017 79 15 2.0 6.0 0.00 0.06 0.06 90 1005.5
20210620191511 78 67 2.0 4.0 0.00 0.06 0.06 89 1005.6
20210620191004 78 99 1.0 4.0 0.00 0.06 0.06 91 1005.6
20210620190459 77 123 2.0 5.0 0.00 0.06 0.06 92 1005.7
20210620185954 77 168 3.0 6.0 0.00 0.06 0.06 91 1005.6
20210620185448 77 113 2.0 7.0 0.00 0.06 0.06 90 1005.7
20210620184941 77 165 2.0 7.0 0.00 0.06 0.06 90 1005.8
20210620184435 77 107 2.0 6.0 0.00 0.06 0.06 90 1005.9